Torna al catalogo

STARLINK-34450

AttivoComunicazioniVLEO
NORAD 64447·PAYLOAD·🇺🇸 United States

Lanciato Jun 18, 2025 da Cape Canaveral Space Force Station

Loading…

Prossimi Passaggi (prossime 24 ore)

TLE

AggiornatoSource: CelesTrak SupGP

Epoca: Sep 14, 2026, 20:33 UTC

1 64447C 25130K   26257.85673611  .00014343  00000+0  42389-3 0  2575
2 64447  53.1568 287.7628 0001147  95.1232 321.8771 15.34374262    17

Traccia STARLINK-34450 in tempo reale con AllMySat

Download on the App Store